Flag for Pakistan Weather past 2 weeks in Lahore, Pakistan

Now
91 °F

Scattered clouds.


Feels Like: 105 °F
Forecast: 82 / 92 °F
Wind: 10 mph from Southeast

Location: Lahore Airport

Current Time: Jul 30, 2015 at 5:19:16 PM

Latest Report: Jul 30, 2015 at 4:55 PM


Visibility: 4 mi

Pressure: 29.45 "Hg

Humidity: 63%

Dew point: 77 °F

Location of LahoreLocation

Historic Weather in Lahore — Graph

°F

Lahore temperature yesterday

Maximum temperature yesterday: 93 °F (at 12:25 PM)
Minimum temperature yesterday: 82 °F (at 2:25 AM)
Average temperature yesterday: 89 °F

Past Weeks' High & Low Weather Summary

 TemperatureHumidityPressure
High106 °F (Jul 16, 1:55 PM)100% (Jul 17, 12:25 AM)29.68 "Hg (Jul 17, 12:25 AM)
Low75 °F (Jul 17, 1:55 AM)50% (Jul 15, 5:55 PM)29.27 "Hg (Jul 16, 5:00 AM)
Average86 °F77%29.53 "Hg
* Reported Jul 15 3:25 PM — Jul 30 3:55 PM, Lahore, Weather by CustomWeather, © 2015

Note: Actual official high and low records may vary slightly from our data, if they occured in-between our weather recording intervals... More about our weather records

Advertising

Lahore weather history for previous 24 hours

 ConditionsComfort  
Time TempWeatherWind HumidityBarometerVisibility
3:55 PM
Thu, Jul 30
93 °FScattered clouds.12 mph59%29.47 "Hg4 mi
3:25 PM93 °FScattered clouds.9 mph59%29.47 "Hg4 mi
2:25 PM91 °FScattered clouds.10 mph63%29.47 "Hg4 mi
1:55 PM91 °FScattered clouds.10 mph63%29.50 "Hg4 mi
1:25 PM91 °FBroken clouds.9 mph63%29.50 "Hg4 mi
12:55 PM91 °FBroken clouds.10 mph63%29.53 "Hg4 mi
12:25 PM90 °FBroken clouds.10 mph63%29.53 "Hg4 mi
11:55 AM90 °FBroken clouds.10 mph63%29.53 "Hg4 mi
11:25 AM90 °FScattered clouds.10 mph63%29.53 "Hg4 mi
10:55 AM90 °FScattered clouds.12 mph63%29.53 "Hg4 mi
10:25 AM90 °FScattered clouds.7 mph63%29.53 "Hg4 mi
9:55 AM90 °FScattered clouds.8 mph63%29.53 "Hg4 mi
9:24 AM90 °FScattered clouds.9 mph63%29.53 "Hg4 mi
8:55 AM88 °FScattered clouds.9 mph66%29.53 "Hg4 mi
8:25 AM86 °FScattered clouds.8 mph70%29.53 "Hg3 mi
7:55 AM86 °FScattered clouds.10 mph70%29.53 "Hg3 mi
7:25 AM84 °FScattered clouds.10 mph74%29.53 "Hg2 mi
6:25 AM82 °FScattered clouds.9 mph79%29.50 "Hg2 mi
5:25 AM81 °FBroken clouds.6 mph84%29.50 "Hg2 mi
4:55 AM81 °FPartly cloudy.7 mph84%29.50 "Hg2 mi
4:25 AM82 °FPassing clouds.6 mph79%29.50 "Hg2 mi
3:55 AM82 °FPassing clouds.6 mph79%29.47 "Hg2 mi
1:55 AM84 °FPassing clouds.No wind79%29.50 "Hg2 mi
1:25 AM84 °FPassing clouds.3 mph79%29.50 "Hg2 mi
12:55 AM84 °FPassing clouds.3 mph79%29.50 "Hg2 mi
12:25 AM84 °FPassing clouds.5 mph79%29.50 "Hg3 mi
11:55 PM
Wed, Jul 29
84 °FPassing clouds.6 mph79%29.50 "Hg3 mi
11:25 PM86 °FPassing clouds.6 mph75%29.53 "Hg3 mi
10:55 PM86 °FPassing clouds.5 mph75%29.53 "Hg3 mi
9:55 PM86 °FPassing clouds.5 mph75%29.50 "Hg3 mi
9:25 PM88 °FPassing clouds.6 mph70%29.50 "Hg3 mi
8:55 PM88 °FPassing clouds.5 mph70%29.50 "Hg3 mi
8:25 PM88 °FPassing clouds.6 mph70%29.47 "Hg3 mi
7:55 PM88 °FSmoke.9 mph70%29.47 "Hg3 mi
7:25 PM90 °FPassing clouds.7 mph63%29.45 "Hg4 mi
6:55 PM90 °FPassing clouds.8 mph63%29.45 "Hg4 mi
6:25 PM91 °FPassing clouds.10 mph59%29.45 "Hg4 mi
5:55 PM93 °FPassing clouds.9 mph56%29.45 "Hg4 mi
5:25 PM93 °FScattered clouds.9 mph59%29.45 "Hg4 mi
Weather by CustomWeather, © 2015

See weather overviewHow to use our weather pages